• In Latvia
  • List of Countries
  • For 7 days
  • Water Temperature
  • Satellite Maps
  • Weather Map
  • Weather Widgets
  • user-avatar
    Login

    Hourly Weather Mendoza

    Today, 20 January, Friday

    Time Temperature Precipitation Wind Pressure Humidity
    00:00 +29°C° 0.1 mm 4 mps 699 mmHg 47%
    01:00 +29°C° 0 mm 4 mps 699 mmHg 49%
    02:00 +29°C° 0 mm 4 mps 699 mmHg 49%
    03:00 +28°C° 0 mm 4 mps 699 mmHg 50%
    04:00 +28°C° 0 mm 3 mps 699 mmHg 50%
    05:00 +29°C° 0 mm 3 mps 699 mmHg 48%
    06:00 +29°C° 0 mm 3 mps 700 mmHg 45%
    07:00 +32°C° 0 mm 4 mps 700 mmHg 41%
    08:00 +33°C° 0 mm 4 mps 700 mmHg 38%
    09:00 +35°C° 0 mm 3 mps 700 mmHg 35%
    10:00 +36°C° 0 mm 2 mps 700 mmHg 31%
    11:00 +37°C° 0.1 mm 3 mps 700 mmHg 30%
    12:00 +38°C° 0.1 mm 4 mps 700 mmHg 28%
    13:00 +41°C° 0.1 mm 4 mps 699 mmHg 26%
    14:00 +41°C° 0.2 mm 5 mps 699 mmHg 26%
    15:00 +41°C° 0.2 mm 5 mps 699 mmHg 25%
    16:00 +41°C° 0.2 mm 5 mps 699 mmHg 25%
    17:00 +40°C° 0.4 mm 4 mps 699 mmHg 27%
    18:00 +37°C° 0.4 mm 4 mps 699 mmHg 30%
    19:00 +36°C° 0.4 mm 3 mps 699 mmHg 33%
    20:00 +35°C° 0.4 mm 3 mps 699 mmHg 35%
    21:00 +34°C° 0.4 mm 3 mps 700 mmHg 36%
    22:00 +33°C° 0.4 mm 3 mps 700 mmHg 38%
    23:00 +33°C° 0.1 mm 3 mps 700 mmHg 39%

    Tomorrow, 21 January, Saturday

    Time Temperature Precipitation Wind Pressure Humidity
    00:00 +31°C° 0.1 mm 3 mps 700 mmHg 40%
    01:00 +30°C° 0.1 mm 3 mps 699 mmHg 41%
    02:00 +30°C° 0 mm 3 mps 699 mmHg 41%
    03:00 +29°C° 0 mm 3 mps 699 mmHg 41%
    04:00 +28°C° 0 mm 2 mps 699 mmHg 41%
    05:00 +30°C° 0 mm 3 mps 699 mmHg 36%
    06:00 +31°C° 0 mm 3 mps 700 mmHg 32%
    07:00 +33°C° 0 mm 3 mps 700 mmHg 28%
    08:00 +35°C° 0 mm 3 mps 700 mmHg 26%
    09:00 +36°C° 0 mm 4 mps 700 mmHg 24%
    10:00 +39°C° 0 mm 5 mps 700 mmHg 22%
    11:00 +40°C° 0.1 mm 5 mps 700 mmHg 21%
    12:00 +41°C° 0.1 mm 5 mps 699 mmHg 19%
    13:00 +42°C° 0.1 mm 6 mps 699 mmHg 18%
    14:00 +42°C° 0.2 mm 5 mps 698 mmHg 18%
    15:00 +42°C° 0.2 mm 5 mps 698 mmHg 18%
    16:00 +42°C° 0.2 mm 5 mps 698 mmHg 18%
    17:00 +40°C° 0.3 mm 4 mps 698 mmHg 21%
    18:00 +37°C° 0.3 mm 4 mps 698 mmHg 24%
    19:00 +36°C° 0.3 mm 3 mps 698 mmHg 27%
    20:00 +35°C° 0.1 mm 3 mps 698 mmHg 29%
    21:00 +34°C° 0.1 mm 3 mps 698 mmHg 30%
    22:00 +33°C° 0.1 mm 3 mps 698 mmHg 32%
    23:00 +31°C° 0.3 mm 3 mps 698 mmHg 34%

    Day after tomorrow, 22 January, Sunday

    Time Temperature Precipitation Wind Pressure Humidity
    00:00 +30°C° 0.3 mm 2 mps 698 mmHg 36%
    01:00 +30°C° 0.3 mm 2 mps 697 mmHg 38%
    02:00 +29°C° 0.1 mm 2 mps 697 mmHg 39%
    03:00 +29°C° 0.1 mm 2 mps 697 mmHg 40%
    04:00 +28°C° 0.1 mm 2 mps 697 mmHg 42%
    05:00 +29°C° 0 mm 2 mps 697 mmHg 37%
    06:00 +31°C° 0 mm 2 mps 698 mmHg 33%
    07:00 +32°C° 0 mm 2 mps 698 mmHg 29%
    08:00 +35°C° 0 mm 2 mps 698 mmHg 27%
    09:00 +36°C° 0 mm 3 mps 698 mmHg 25%
    10:00 +38°C° 0 mm 3 mps 698 mmHg 22%
    11:00 +39°C° 0.1 mm 3 mps 698 mmHg 21%
    12:00 +41°C° 0.1 mm 4 mps 698 mmHg 20%
    13:00 +42°C° 0.1 mm 4 mps 697 mmHg 19%
    14:00 +42°C° 0.2 mm 4 mps 697 mmHg 19%
    15:00 +41°C° 0.2 mm 4 mps 697 mmHg 19%
    16:00 +41°C° 0.2 mm 4 mps 697 mmHg 19%
    17:00 +39°C° 0.7 mm 3 mps 697 mmHg 23%
    18:00 +37°C° 0.7 mm 3 mps 697 mmHg 28%
    19:00 +35°C° 0.7 mm 3 mps 697 mmHg 32%
    20:00 +33°C° 1.9 mm 4 mps 698 mmHg 40%
    21:00 +30°C° 1.9 mm 5 mps 698 mmHg 48%
    22:00 +28°C° 1.9 mm 6 mps 699 mmHg 56%
    23:00 +28°C° 0.3 mm 6 mps 699 mmHg 59%

    23 January, Monday

    Time Temperature Precipitation Wind Pressure Humidity
    00:00 +27°C° 0.3 mm 5 mps 699 mmHg 62%
    01:00 +27°C° 0.3 mm 4 mps 699 mmHg 64%
    02:00 +27°C° 0 mm 3 mps 698 mmHg 65%
    03:00 +26°C° 0 mm 3 mps 698 mmHg 66%
    04:00 +26°C° 0 mm 2 mps 698 mmHg 67%
    05:00 +27°C° 0 mm 2 mps 698 mmHg 64%
    06:00 +27°C° 0 mm 2 mps 699 mmHg 61%
    07:00 +28°C° 0 mm 2 mps 699 mmHg 57%
    08:00 +29°C° 0.1 mm 2 mps 699 mmHg 52%
    09:00 +31°C° 0.1 mm 2 mps 699 mmHg 47%
    10:00 +32°C° 0.1 mm 2 mps 699 mmHg 42%
    11:00 +34°C° 0.3 mm 2 mps 698 mmHg 40%
    12:00 +35°C° 0.3 mm 3 mps 698 mmHg 37%
    13:00 +36°C° 0.3 mm 3 mps 697 mmHg 35%
    14:00 +36°C° 0.3 mm 3 mps 697 mmHg 35%
    15:00 +36°C° 0.3 mm 3 mps 697 mmHg 35%
    16:00 +36°C° 0.3 mm 3 mps 696 mmHg 34%
    17:00 +35°C° 0.3 mm 2 mps 697 mmHg 37%
    18:00 +34°C° 0.3 mm 2 mps 697 mmHg 40%
    19:00 +32°C° 0.3 mm 2 mps 697 mmHg 44%
    20:00 +31°C° 0.2 mm 2 mps 698 mmHg 46%
    21:00 +31°C° 0.2 mm 2 mps 698 mmHg 48%
    22:00 +30°C° 0.2 mm 1 mps 698 mmHg 50%
    23:00 +30°C° 0.1 mm 2 mps 698 mmHg 50%

    24 January, Tuesday

    Time Temperature Precipitation Wind Pressure Humidity
    00:00 +29°C° 0.1 mm 2 mps 698 mmHg 50%
    01:00 +29°C° 0.1 mm 2 mps 697 mmHg 50%
    02:00 +28°C° 0.1 mm 3 mps 697 mmHg 52%
    03:00 +28°C° 0.1 mm 4 mps 698 mmHg 53%
    04:00 +27°C° 0.1 mm 5 mps 698 mmHg 55%
    05:00 +27°C° 0 mm 5 mps 698 mmHg 50%
    06:00 +27°C° 0 mm 5 mps 699 mmHg 46%
    07:00 +27°C° 0 mm 5 mps 700 mmHg 41%
    08:00 +28°C° 0 mm 6 mps 700 mmHg 38%
    09:00 +28°C° 0 mm 6 mps 700 mmHg 34%
    10:00 +29°C° 0 mm 6 mps 700 mmHg 31%
    11:00 +30°C° 0 mm 6 mps 700 mmHg 29%
    12:00 +32°C° 0 mm 6 mps 700 mmHg 27%
    13:00 +33°C° 0 mm 5 mps 699 mmHg 25%
    14:00 +33°C° 0.1 mm 5 mps 699 mmHg 25%
    15:00 +33°C° 0.1 mm 4 mps 699 mmHg 25%
    16:00 +33°C° 0.1 mm 4 mps 699 mmHg 25%
    17:00 +31°C° 0.1 mm 3 mps 699 mmHg 28%
    18:00 +29°C° 0.1 mm 3 mps 700 mmHg 31%
    19:00 +28°C° 0.1 mm 2 mps 700 mmHg 34%
    20:00 +28°C° 0 mm 2 mps 701 mmHg 35%
    21:00 +27°C° 0 mm 2 mps 701 mmHg 37%
    22:00 +27°C° 0 mm 2 mps 702 mmHg 38%
    23:00 +26°C° 0 mm 2 mps 701 mmHg 39%

    25 January, Wednesday

    Time Temperature Precipitation Wind Pressure Humidity
    00:00 +26°C° 0 mm 2 mps 701 mmHg 41%
    01:00 +25°C° 0 mm 2 mps 701 mmHg 42%
    02:00 +24°C° 0 mm 2 mps 700 mmHg 44%
    03:00 +24°C° 0 mm 2 mps 700 mmHg 46%
    04:00 +23°C° 0 mm 2 mps 700 mmHg 47%
    05:00 +24°C° 0 mm 2 mps 701 mmHg 44%
    06:00 +25°C° 0 mm 2 mps 701 mmHg 41%
    07:00 +26°C° 0 mm 2 mps 701 mmHg 38%
    08:00 +28°C° 0 mm 2 mps 701 mmHg 34%
    09:00 +30°C° 0 mm 3 mps 701 mmHg 31%
    10:00 +31°C° 0 mm 3 mps 701 mmHg 27%
    11:00 +34°C° 0 mm 3 mps 700 mmHg 25%
    12:00 +35°C° 0 mm 4 mps 700 mmHg 23%
    13:00 +36°C° 0 mm 4 mps 699 mmHg 22%
    14:00 +37°C° 0.1 mm 4 mps 699 mmHg 21%
    15:00 +37°C° 0.1 mm 4 mps 698 mmHg 21%
    16:00 +37°C° 0.1 mm 4 mps 698 mmHg 21%
    17:00 +36°C° 0.1 mm 3 mps 698 mmHg 23%
    18:00 +34°C° 0.1 mm 3 mps 698 mmHg 25%
    19:00 +32°C° 0.1 mm 2 mps 699 mmHg 28%
    20:00 +31°C° 0.1 mm 2 mps 699 mmHg 30%
    21:00 +30°C° 0.1 mm 1 mps 699 mmHg 32%
    22:00 +29°C° 0.1 mm 1 mps 699 mmHg 34%
    23:00 +29°C° 0 mm 1 mps 699 mmHg 36%
    Show more